Weather reports worldwide

Advertisment
Gijon, Spain (8014): temperature & dewpoint: 20.09.2018 17:00:00 - 26.09.2018 17:00:00 (CEST)Gijon, Spain (8014): wind speed: 20.09.2018 17:00:00 - 26.09.2018 17:00:00 (CEST)Gijon, Spain (8014): wind direction: 20.09.2018 17:00:00 - 26.09.2018 17:00:00 (CEST)Gijon, Spain (8014): reduced air pressure: 20.09.2018 17:00:00 - 26.09.2018 17:00:00 (CEST)Gijon, Spain (8014): visibility: 20.09.2018 17:00:00 - 26.09.2018 17:00:00 (CEST)
Date & Time tt [°C] td [°C] ff [km/h] ff [kn] dd ppp [hPa] vv [km]
26.09.2018 17:00:00 19,3 15,2 5 3 ESE 1023,6 15
26.09.2018 16:00:00 - - - - - - -
26.09.2018 15:00:00 - - - - - - -
26.09.2018 14:00:00 18,8 13,6 8 4 ENE 1023,7 15
26.09.2018 13:00:00 - - - - - - -
26.09.2018 12:00:00 - - - - - - -
26.09.2018 11:00:00 16,0 13,1 9 5 SSW 1024,8 10
26.09.2018 10:00:00 - - - - - - -
26.09.2018 09:00:00 - - - - - - -
26.09.2018 08:00:00 12,4 11,1 4 2 SW 1024,4 15
26.09.2018 07:00:00 - - - - - - -
26.09.2018 06:00:00 - - - - - - -
26.09.2018 05:00:00 - - - - - - -
26.09.2018 04:00:00 - - - - - - -
26.09.2018 03:00:00 - - - - - - -
26.09.2018 02:00:00 - - - - - - -
26.09.2018 01:00:00 - - - - - - -
26.09.2018 00:00:00 - - - - - - -
25.09.2018 23:00:00 - - - - - - -
25.09.2018 22:00:00 - - - - - - -
25.09.2018 21:00:00 - - - - - - -
25.09.2018 20:00:00 16,9 13,8 8 4 E 1026,6 20
25.09.2018 19:00:00 - - - - - - -
25.09.2018 18:00:00 - - - - - - -
25.09.2018 17:00:00 - - - - - - -
25.09.2018 16:00:00 - - - - - - -
25.09.2018 15:00:00 - - - - - - -
25.09.2018 14:00:00 18,8 12,1 15 8 E 1028,1 20
25.09.2018 13:00:00 - - - - - - -
25.09.2018 12:00:00 - - - - - - -
25.09.2018 11:00:00 - - - - - - -
25.09.2018 10:00:00 - - - - - - -
25.09.2018 09:00:00 - - - - - - -
25.09.2018 08:00:00 12,2 9,8 0 0 N 1028,0 20
25.09.2018 07:00:00 - - - - - - -
25.09.2018 06:00:00 - - - - - - -
25.09.2018 05:00:00 - - - - - - -
25.09.2018 04:00:00 - - - - - - -
25.09.2018 03:00:00 - - - - - - -
25.09.2018 02:00:00 - - - - - - -
25.09.2018 01:00:00 - - - - - - -
25.09.2018 00:00:00 - - - - - - -
24.09.2018 23:00:00 - - - - - - -
24.09.2018 22:00:00 - - - - - - -
24.09.2018 21:00:00 - - - - - - -
24.09.2018 20:00:00 16,9 12,4 11 6 E 1029,8 20
24.09.2018 19:00:00 - - - - - - -
24.09.2018 18:00:00 - - - - - - -
24.09.2018 17:00:00 - - - - - - -
24.09.2018 16:00:00 - - - - - - -
24.09.2018 15:00:00 - - - - - - -
24.09.2018 14:00:00 18,1 12,1 21 11 E 1031,0 15
24.09.2018 13:00:00 - - - - - - -
24.09.2018 12:00:00 - - - - - - -
24.09.2018 11:00:00 17,8 14,3 16 9 E 1031,8 10
24.09.2018 10:00:00 - - - - - - -
24.09.2018 09:00:00 - - - - - - -
24.09.2018 08:00:00 17,2 15,5 15 8 ENE 1029,8 6
24.09.2018 07:00:00 - - - - - - -
24.09.2018 06:00:00 - - - - - - -
24.09.2018 05:00:00 - - - - - - -
24.09.2018 04:00:00 - - - - - - -
24.09.2018 03:00:00 - - - - - - -
24.09.2018 02:00:00 - - - - - - -
24.09.2018 01:00:00 - - - - - - -
24.09.2018 00:00:00 - - - - - - -
23.09.2018 23:00:00 - - - - - - -
23.09.2018 22:00:00 - - - - - - -
23.09.2018 21:00:00 - - - - - - -
23.09.2018 20:00:00 21,1 19,4 4 2 NW 1026,8 15
23.09.2018 19:00:00 - - - - - - -
23.09.2018 18:00:00 - - - - - - -
23.09.2018 17:00:00 21,0 19,1 5 3 S 1025,6 12
23.09.2018 16:00:00 - - - - - - -
23.09.2018 15:00:00 - - - - - - -
23.09.2018 14:00:00 20,7 18,5 0 0 N 1025,3 10
23.09.2018 13:00:00 - - - - - - -
23.09.2018 12:00:00 - - - - - - -
23.09.2018 11:00:00 19,5 18,7 4 2 WSW 1024,4 4,0
23.09.2018 10:00:00 - - - - - - -
23.09.2018 09:00:00 - - - - - - -
23.09.2018 08:00:00 17,9 17,4 4 2 SSW 1023,4 4,0
23.09.2018 07:00:00 - - - - - - -
23.09.2018 06:00:00 - - - - - - -
23.09.2018 05:00:00 - - - - - - -
23.09.2018 04:00:00 - - - - - - -
23.09.2018 03:00:00 - - - - - - -
23.09.2018 02:00:00 - - - - - - -
23.09.2018 01:00:00 - - - - - - -
23.09.2018 00:00:00 - - - - - - -
22.09.2018 23:00:00 - - - - - - -
22.09.2018 22:00:00 - - - - - - -
22.09.2018 21:00:00 - - - - - - -
22.09.2018 20:00:00 - - - - - - -
22.09.2018 19:00:00 - - - - - - -
22.09.2018 18:00:00 - - - - - - -
22.09.2018 17:00:00 21,9 18,3 13 7 NNE 1023,4 20
22.09.2018 16:00:00 - - - - - - -
22.09.2018 15:00:00 - - - - - - -
22.09.2018 14:00:00 23,1 16,6 8 4 NNW 1023,3 15
22.09.2018 13:00:00 - - - - - - -
22.09.2018 12:00:00 - - - - - - -
22.09.2018 11:00:00 21,8 17,4 15 8 SW 1022,8 15
22.09.2018 10:00:00 - - - - - - -
22.09.2018 09:00:00 - - - - - - -
22.09.2018 08:00:00 17,8 17,0 9 5 SW 1021,9 15
22.09.2018 07:00:00 - - - - - - -
22.09.2018 06:00:00 - - - - - - -
22.09.2018 05:00:00 - - - - - - -
22.09.2018 04:00:00 - - - - - - -
22.09.2018 03:00:00 - - - - - - -
22.09.2018 02:00:00 - - - - - - -
22.09.2018 01:00:00 - - - - - - -
22.09.2018 00:00:00 - - - - - - -
21.09.2018 23:00:00 - - - - - - -
21.09.2018 22:00:00 - - - - - - -
21.09.2018 21:00:00 - - - - - - -
21.09.2018 20:00:00 18,7 16,7 5 3 NNE 1023,2 10
21.09.2018 19:00:00 - - - - - - -
21.09.2018 18:00:00 - - - - - - -
21.09.2018 17:00:00 18,8 17,3 5 3 NNE 1022,4 10
21.09.2018 16:00:00 - - - - - - -
21.09.2018 15:00:00 - - - - - - -
21.09.2018 14:00:00 18,4 17,6 8 4 NE 1022,2 15
21.09.2018 13:00:00 - - - - - - -
21.09.2018 12:00:00 - - - - - - -
21.09.2018 11:00:00 20,0 14,4 5 3 NW 1020,7 15
21.09.2018 10:00:00 - - - - - - -
21.09.2018 09:00:00 - - - - - - -
21.09.2018 08:00:00 18,8 15,9 9 5 SW 1018,2 15
21.09.2018 07:00:00 - - - - - - -
21.09.2018 06:00:00 - - - - - - -
21.09.2018 05:00:00 - - - - - - -
21.09.2018 04:00:00 - - - - - - -
21.09.2018 03:00:00 - - - - - - -
21.09.2018 02:00:00 - - - - - - -
21.09.2018 01:00:00 - - - - - - -
21.09.2018 00:00:00 - - - - - - -
20.09.2018 23:00:00 - - - - - - -
20.09.2018 22:00:00 - - - - - - -
20.09.2018 21:00:00 - - - - - - -
20.09.2018 20:00:00 19,7 14,9 5 3 WNW 1018,2 30
20.09.2018 19:00:00 - - - - - - -
20.09.2018 18:00:00 - - - - - - -
20.09.2018 17:00:00 20,9 15,0 8 4 NE 1017,4 30

tt = temperature
td = dewpoint
ff = wind speed
dd = wind direction
ppp = reduced air pressure
vv = visibility

Next stations